Location: ????????
(56.1167°N, 38.6333°E)
Time: 20:15:00
(UTC+00:00)

Cosmos 2344 - Pass Details

Date: 18 November 2025
Orbit: 1197 x 3045 km, 63.3° (Epoch: 14 December)

Event Time Altitude Azimuth Distance (km) Brightness Sun altitude
Rises 13:56:25 0° 294° (WNW) 4,107 6.9 -6.2°
Reaches altitude 10° 13:59:04 10° 299° (WNW) 3,159 6.2 -6.5°
Maximum altitude 14:06:17 59° 19° (NNE) 1,509 3.8 -7.4°
Drops below altitude 10° 14:15:11 10° 99° (E) 3,851 5.6 -8.6°
Enters shadow 14:18:21 - 103° (ESE) 4,940 6.2 -9.0°
